Location: Alafon
(8.4500°N, 4.2333°E)
Time: 20:28:28
(UTC+00:00)

Vanguard 2 - Pass Details

Date: 12 August 2021
Orbit: 553 x 2937 km, 32.9° (Epoch: 27 September)

Event Time Altitude Azimuth Distance (km) Brightness Sun altitude
Rises 09:42:32 0° 273° (W) 3,628 10.7 58.6°
Reaches altitude 10° 09:45:14 10° 259° (W) 2,959 10.3 59.3°
Maximum altitude 09:51:16 26° 205° (SSW) 2,568 10.3 60.7°
Drops below altitude 10° 10:00:06 10° 155° (SSE) 4,447 11.6 62.8°
Sets 10:05:24 0° 144° (SE) 5,885 12.2 64.1°
